Miscellaneous Local Product
Issued by NWS Hastings, NE

Home | Current Version | Previous Version | Text Only | Print | Product List | Glossary Off
Versions: 1 2 3 4 5 6 7 8 9 10 11 12 13 14 15 16 17 18 19 20 21 22 23 24 25 26 27 28 29 30 31 32 33 34 35 36 37 38 39 40 41 42 43 44 45 46 47 48 49 50

000
AXUS43 KGID 190202
MISGRI

GID CWA HOURLY WEATHER ROUNDUP
NATIONAL WEATHER SERVICE HASTINGS NE
800 PM CST SAT NOV 18 2017

NOTE: "FAIR" INDICATES FEW OR NO CLOUDS BELOW 12,000 FEET WITH NO
SIGNIFICANT WEATHER AND/OR OBSTRUCTIONS TO VISIBILITY.

...SOUTH CENTRAL NEBRASKA...

CITY           SKY/WX    TMP DP  RH WIND       PRES   REMARKS
GRAND ISLAND   CLEAR     33  26  75 W7        30.20R WCI  27
KEARNEY        CLEAR     36  24  62 W7        30.21R WCI  30
HASTINGS       CLEAR     30  22  72 NW9       30.21R WCI  22
ORD            CLEAR     29  23  78 W6        30.18R WCI  23
YORK           CLEAR     32  28  86 CALM      30.19R
AURORA         CLEAR     31  26  80 NW6       30.20R WCI  25
LEXINGTON      CLEAR     31  23  73 W7        30.22R WCI  24
HOLDREGE       CLEAR     35  24  66 W7        30.21S WCI  29
HEBRON         CLEAR     37  26  66 NW5       30.21R WCI  33

...NEBRASKA PANHANDLE...

CITY           SKY/WX    TMP DP  RH WIND       PRES   REMARKS
CHADRON        CLEAR     25  18  74 SW9       30.20R WCI  15
ALLIANCE       CLEAR     25  14  63 W12       30.19S WCI  14
SCOTTSBLUFF    CLEAR     27  16  63 NW7       30.22R WCI  19
SIDNEY         CLEAR     31  17  56 NW12      30.22R WCI  22

...WESTERN AND NORTH CENTRAL NEBRASKA...

CITY           SKY/WX    TMP DP  RH WIND       PRES   REMARKS
VALENTINE      PTCLDY    29  22  75 W6        30.16F WCI  23
AINSWORTH      CLOUDY    33  25  72 NW3       30.17S
ONEILL         CLEAR     28  23  82 W5        30.17S WCI  22
BROKEN BOW     CLEAR     32  23  69 NW8       30.19R WCI  25
IMPERIAL       CLEAR     37  15  40 NW12      30.24R WCI  29
NORTH PLATTE   CLEAR     28  19  69 CALM      30.22R
MCCOOK         CLEAR     34  22  61 NW9       30.24R WCI  27

...EASTERN NEBRASKA...

CITY           SKY/WX    TMP DP  RH WIND       PRES   REMARKS
NORFOLK        CLEAR     30  23  75 NW7       30.16R WCI  23
SO SIOUX CITY  CLEAR     28  20  71 NW10      30.16R WCI  19
TEKAMAH        CLEAR     30  20  66 NW8       30.18R WCI  22
COLUMBUS       CLEAR     29  24  82 NW9       30.20R WCI  20
ALBION         CLEAR     31  24  75 NW3       30.18S
OMAHA EPPLEY   CLEAR     34  22  61 NW14      30.17R WCI  25
OFFUTT AFB     CLEAR     36  22  56 NW10      30.17R WCI  29
MILLARD        CLEAR     38  26  62 NW7       30.17R WCI  32
LINCOLN        CLEAR     37  26  64 NW8       30.20R WCI  31
NEBRASKA CITY  CLEAR     35  28  73 N8        30.17R WCI  29
BEATRICE       CLEAR     29  25  85 NW6       30.19R WCI  23
FALLS CITY     CLEAR     37  27  67 NW9       30.17R WCI  30

...NORTHERN KANSAS...

CITY           SKY/WX    TMP DP  RH WIND       PRES   REMARKS
GOODLAND       CLEAR     28  15  58 W7        30.25R WCI  21
HILL CITY      CLEAR     37  21  52 NW9       30.26R WCI  30
NORTON         CLEAR     30  16  55 W8        30.23R WCI  23
PHILLIPSBURG   CLEAR     34  21  60 NW7       30.25R WCI  28
SMITH CENTER   CLEAR     34  21  60 NW3       30.24R
HAYS           CLEAR     35  21  56 NW8       30.26R WCI  29
RUSSELL        CLEAR     37  24  59 W6        30.24R WCI  32
CONCORDIA      CLEAR     37  25  61 W8        30.22R WCI  31
SALINA         CLEAR     40  25  55 W6        30.24R
TOPEKA         CLEAR     43  28  55 NW9       30.17R



USA.gov is the U.S. government's official web portal to all federal, state and local government web resources and services.